Flag for U.S.A. Weather past 2 weeks in Houston, Texas, U.S.A.

Now
75 °F

Passing clouds.


Feels Like: 73 °F
Forecast: 73 / 87 °F
Wind: No wind

Location: Houston Hobby Airport

Current Time: Sep 30, 2014 at 7:38:57 AM

Latest Report: Sep 30, 2014 at 6:53 AM


Visibility: 10 mi

Pressure: 29.88 "Hg

Humidity: 94%

Dew point: 73 °F

Location of HoustonLocation

Historic Weather in Houston — Graph

°F

Houston temperature yesterday

Maximum temperature yesterday: 87 °F (at 2:53 PM)
Minimum temperature yesterday: 72 °F (at 5:53 AM)
Average temperature yesterday: 79 °F

Past Weeks' High & Low Weather Summary

 TemperatureHumidityPressure
High92 °F (Sep 22, 2:53 PM)100% (Sep 18, 11:56 AM)30.15 "Hg (Sep 18, 11:56 AM)
Low66 °F (Sep 23, 6:53 AM)35% (Sep 23, 2:53 PM)29.86 "Hg (Sep 18, 4:53 PM)
Average78 °F78%30.00 "Hg
* Reported Sep 15 5:53 AM — Sep 30 5:53 AM, Houston, Weather by CustomWeather, © 2014

Note: Actual official high and low records may vary slightly from our data, if they occured in-between our weather recording intervals... More about our weather records

Advertising

Houston weather history for previous 24 hours

 ConditionsComfort  
Time TempWeatherWind HumidityBarometerVisibility
5:53 AM
Sep 30
75 °FOvercast.No wind90%29.87 "Hg8 mi
4:53 AM74 °FPassing clouds.No wind94%29.87 "Hg9 mi
3:53 AM74 °FClear.No wind94%29.87 "Hg8 mi
2:53 AM75 °FClear.No wind90%29.87 "Hg10 mi
1:53 AM74 °FPassing clouds.No wind94%29.86 "Hg8 mi
12:53 AM75 °FPassing clouds.No wind94%29.87 "Hg10 mi
11:53 PM
Sep 29
76 °FPassing clouds.No wind91%29.88 "Hg10 mi
10:53 PM77 °FPassing clouds.No wind88%29.89 "Hg10 mi
9:53 PM78 °FPassing clouds.No wind87%29.89 "Hg10 mi
8:53 PM79 °FPassing clouds.No wind82%29.88 "Hg10 mi
7:53 PM81 °FScattered clouds.No wind72%29.87 "Hg10 mi
6:53 PM83 °FScattered clouds.No wind70%29.87 "Hg10 mi
5:53 PM85 °FScattered clouds.5 mph65%29.86 "Hg10 mi
4:53 PM84 °FBroken clouds.5 mph70%29.87 "Hg10 mi
3:53 PM86 °FPartly sunny.7 mph63%29.88 "Hg10 mi
2:53 PM87 °FScattered clouds.9 mph57%29.89 "Hg10 mi
1:53 PM85 °FScattered clouds.8 mph61%29.91 "Hg10 mi
12:53 PM84 °FPartly sunny.7 mph65%29.94 "Hg10 mi
11:53 AM83 °FScattered clouds.12 mph65%29.95 "Hg10 mi
10:53 AM82 °FScattered clouds.9 mph72%29.96 "Hg10 mi
9:53 AM79 °FScattered clouds.8 mph79%29.96 "Hg10 mi
8:53 AM76 °FPassing clouds.10 mph85%29.95 "Hg10 mi
7:53 AM73 °FClear.7 mph97%29.94 "Hg10 mi
Weather by CustomWeather, © 2014

See weather overviewHow to use our weather pages